Tracking 28790 objects as of 19-Apr-2024
HD Live streaming from Space Station
objects crossing your sky now

SL-14 DEB

Track SL-14 DEB now!
10-day predictions


NORAD ID: 19174
Int'l Code: 1978-100R
Perigee: 1,475.1 km
Apogee: 1,705.7 km
Inclination: 81.9 °
Period: 117.8 minutes
Semi major axis: 7961 km
RCS: 0.0241 m2 (small)
Launch date: October 26, 1978
Source: Commonwealth of Independent States (former USSR) (CIS)
Launch site: PLESETSK MISSILE AND SPACE COMPLEX (PKMTR)

Note: This is SATELLITE DEBRIS
Your satellite tracking list
Your tracking list is empty




NASA's NSSDC Master Catalog

Two Line Element Set (TLE):
1 19174U 78100R   24109.19121858  .00000172  00000-0  14963-2 0  9994
2 19174  81.9078 176.4777 0144846 338.1707  50.2726 12.22138179602200
Source of the keplerian elements: AFSPC